Time,TemperatureF,DewpointF,PressureIn,WindDirection,WindDirectionDegrees,WindSpeedMPH,WindSpeedGustMPH,Humidity,HourlyPrecipIn,Conditions,Clouds,dailyrainin,SolarRadiationWatts/m^2,SoftwareType,DateUTC
2013-01-26 00:21:00,46.0,46.0,-100.00,WSW,254,0.0,0.0,100,0.02,,,0.09,0.000000,,2013-01-26 08:21:00,
2013-01-26 00:31:00,46.0,46.0,-100.00,WSW,254,0.0,0.0,100,0.02,,,0.09,0.000000,,2013-01-26 08:31:00,
2013-01-26 00:42:00,46.0,46.0,-100.00,WSW,254,0.0,0.0,100,0.02,,,0.09,0.000000,,2013-01-26 08:42:00,
2013-01-26 00:53:00,46.0,46.0,-100.00,WSW,254,0.0,0.0,100,0.02,,,0.09,0.000000,,2013-01-26 08:53:00,
2013-01-26 01:22:00,47.0,47.0,-100.00,ESE,123,0.0,4.0,100,0.05,,,0.14,0.000000,,2013-01-26 09:22:00,
2013-01-26 01:31:00,47.0,47.0,-100.00,ESE,123,0.0,4.0,100,0.05,,,0.14,0.000000,,2013-01-26 09:31:00,
2013-01-26 01:42:00,47.0,47.0,-100.00,ESE,123,0.0,4.0,100,0.05,,,0.14,0.000000,,2013-01-26 09:42:00,
2013-01-26 01:51:00,47.0,47.0,-100.00,ESE,123,0.0,4.0,100,0.05,,,0.14,0.000000,,2013-01-26 09:51:00,
2013-01-26 02:21:00,45.0,45.0,-100.00,ESE,117,0.0,0.0,100,0.08,,,0.22,0.000000,,2013-01-26 10:21:00,
2013-01-26 02:31:00,45.0,45.0,-100.00,ESE,117,0.0,0.0,100,0.08,,,0.22,0.000000,,2013-01-26 10:31:00,
2013-01-26 02:42:00,45.0,45.0,-100.00,ESE,117,0.0,0.0,100,0.08,,,0.22,0.000000,,2013-01-26 10:42:00,
2013-01-26 02:52:00,45.0,45.0,-100.00,ESE,117,0.0,0.0,100,0.08,,,0.22,0.000000,,2013-01-26 10:52:00,
2013-01-26 03:22:00,47.0,47.0,-100.00,WSW,246,0.0,0.0,100,0.05,,,0.27,0.000000,,2013-01-26 11:22:00,
2013-01-26 03:32:00,47.0,47.0,-100.00,WSW,246,0.0,0.0,100,0.05,,,0.27,0.000000,,2013-01-26 11:32:00,
2013-01-26 03:42:00,47.0,47.0,-100.00,WSW,246,0.0,0.0,100,0.05,,,0.27,0.000000,,2013-01-26 11:42:00,
2013-01-26 03:52:00,47.0,47.0,-100.00,WSW,246,0.0,0.0,100,0.05,,,0.27,0.000000,,2013-01-26 11:52:00,
2013-01-26 04:22:00,47.0,47.0,-100.00,SE,133,0.0,2.0,100,0.05,,,0.32,0.000000,,2013-01-26 12:22:00,
2013-01-26 04:33:00,47.0,47.0,-100.00,SE,133,0.0,2.0,100,0.05,,,0.32,0.000000,,2013-01-26 12:33:00,
2013-01-26 04:42:00,47.0,47.0,-100.00,SE,133,0.0,2.0,100,0.05,,,0.32,0.000000,,2013-01-26 12:42:00,
2013-01-26 04:52:00,47.0,47.0,-100.00,SE,133,0.0,2.0,100,0.05,,,0.32,0.000000,,2013-01-26 12:52:00,
2013-01-26 05:22:00,47.0,47.0,-100.00,West,270,0.0,0.0,100,0.02,,,0.34,0.000000,,2013-01-26 13:22:00,
2013-01-26 05:32:00,47.0,47.0,-100.00,West,270,0.0,0.0,100,0.02,,,0.34,0.000000,,2013-01-26 13:32:00,
2013-01-26 05:42:00,47.0,47.0,-100.00,West,270,0.0,0.0,100,0.02,,,0.34,0.000000,,2013-01-26 13:42:00,
2013-01-26 05:52:00,47.0,47.0,-100.00,West,270,0.0,0.0,100,0.02,,,0.34,0.000000,,2013-01-26 13:52:00,
2013-01-26 06:21:00,45.0,45.0,-100.00,SW,229,0.0,5.0,100,0.04,,,0.38,0.000000,,2013-01-26 14:21:00,
2013-01-26 06:32:00,45.0,45.0,-100.00,SW,229,0.0,5.0,100,0.04,,,0.38,0.000000,,2013-01-26 14:32:00,
2013-01-26 06:42:00,45.0,45.0,-100.00,SW,229,0.0,5.0,100,0.04,,,0.38,0.000000,,2013-01-26 14:42:00,
2013-01-26 06:52:00,45.0,45.0,-100.00,SW,229,0.0,5.0,100,0.04,,,0.38,0.000000,,2013-01-26 14:52:00,
2013-01-26 07:22:00,45.0,45.0,-100.00,ESE,112,0.0,2.0,100,0.01,,,0.39,0.000000,,2013-01-26 15:22:00,
2013-01-26 07:32:00,45.0,45.0,-100.00,ESE,112,0.0,2.0,100,0.01,,,0.39,0.000000,,2013-01-26 15:32:00,
2013-01-26 07:43:00,45.0,45.0,-100.00,ESE,112,0.0,2.0,100,0.01,,,0.39,0.000000,,2013-01-26 15:43:00,
2013-01-26 07:52:00,45.0,45.0,-100.00,ESE,112,0.0,2.0,100,0.01,,,0.39,0.000000,,2013-01-26 15:52:00,
2013-01-26 08:22:00,45.0,45.0,-100.00,East,98,0.0,8.0,100,0.00,,,0.39,22.000000,,2013-01-26 16:22:00,
2013-01-26 08:32:00,45.0,45.0,-100.00,East,98,0.0,8.0,100,0.00,,,0.39,22.000000,,2013-01-26 16:32:00,
2013-01-26 08:42:00,45.0,45.0,-100.00,East,98,0.0,8.0,100,0.00,,,0.39,22.000000,,2013-01-26 16:42:00,
2013-01-26 08:52:00,45.0,45.0,-100.00,East,98,0.0,8.0,100,0.00,,,0.39,22.000000,,2013-01-26 16:52:00,
2013-01-26 09:22:00,47.0,47.0,-100.00,WNW,291,0.0,7.0,100,0.00,,,0.39,115.000000,,2013-01-26 17:22:00,
2013-01-26 09:32:00,47.0,47.0,-100.00,WNW,291,0.0,7.0,100,0.00,,,0.39,115.000000,,2013-01-26 17:32:00,
2013-01-26 09:42:00,47.0,47.0,-100.00,WNW,291,0.0,7.0,100,0.00,,,0.39,115.000000,,2013-01-26 17:42:00,
2013-01-26 09:52:00,47.0,47.0,-100.00,WNW,291,0.0,7.0,100,0.00,,,0.39,115.000000,,2013-01-26 17:52:00,
2013-01-26 10:22:00,47.0,47.0,-100.00,WNW,292,0.0,4.0,100,0.00,,,0.39,30.000000,,2013-01-26 18:22:00,
2013-01-26 10:32:00,47.0,47.0,-100.00,WNW,292,0.0,4.0,100,0.00,,,0.39,30.000000,,2013-01-26 18:32:00,
2013-01-26 10:42:00,47.0,47.0,-100.00,WNW,292,0.0,4.0,100,0.00,,,0.39,30.000000,,2013-01-26 18:42:00,
2013-01-26 10:52:00,47.0,47.0,-100.00,WNW,292,0.0,4.0,100,0.00,,,0.39,30.000000,,2013-01-26 18:52:00,
2013-01-26 11:22:00,46.0,46.0,-100.00,West,270,0.0,5.0,100,0.02,,,0.41,60.000000,,2013-01-26 19:22:00,
2013-01-26 11:32:00,46.0,46.0,-100.00,West,270,0.0,5.0,100,0.02,,,0.41,60.000000,,2013-01-26 19:32:00,
2013-01-26 11:42:00,46.0,46.0,-100.00,West,270,0.0,5.0,100,0.02,,,0.41,60.000000,,2013-01-26 19:42:00,
2013-01-26 11:52:00,46.0,46.0,-100.00,West,270,0.0,5.0,100,0.02,,,0.41,60.000000,,2013-01-26 19:52:00,
2013-01-26 12:21:00,46.0,46.0,-100.00,NW,321,0.0,4.0,100,0.01,,,0.42,127.000000,,2013-01-26 20:21:00,
2013-01-26 12:32:00,46.0,46.0,-100.00,NW,321,0.0,4.0,100,0.01,,,0.42,127.000000,,2013-01-26 20:32:00,
2013-01-26 12:42:00,46.0,46.0,-100.00,NW,321,0.0,4.0,100,0.01,,,0.42,127.000000,,2013-01-26 20:42:00,
2013-01-26 12:52:00,46.0,46.0,-100.00,NW,321,0.0,4.0,100,0.01,,,0.42,127.000000,,2013-01-26 20:52:00,
2013-01-26 13:22:00,46.0,46.0,-100.00,WNW,303,0.0,5.0,100,0.00,,,0.42,85.000000,,2013-01-26 21:22:00,
2013-01-26 13:32:00,46.0,46.0,-100.00,WNW,303,0.0,5.0,100,0.00,,,0.42,85.000000,,2013-01-26 21:32:00,
2013-01-26 13:42:00,46.0,46.0,-100.00,WNW,303,0.0,5.0,100,0.00,,,0.42,85.000000,,2013-01-26 21:42:00,
2013-01-26 13:51:00,46.0,46.0,-100.00,WNW,303,0.0,5.0,100,0.00,,,0.42,85.000000,,2013-01-26 21:51:00,
2013-01-26 14:21:00,46.0,46.0,-100.00,WNW,289,1.0,4.0,100,0.02,,,-99.99,95.000000,,2013-01-26 22:21:00,
2013-01-26 14:31:00,46.0,46.0,-100.00,WNW,289,1.0,4.0,100,0.02,,,-99.99,95.000000,,2013-01-26 22:31:00,
2013-01-26 14:42:00,46.0,46.0,-100.00,WNW,289,1.0,4.0,100,0.02,,,-99.99,95.000000,,2013-01-26 22:42:00,
2013-01-26 14:51:00,46.0,46.0,-100.00,WNW,289,1.0,4.0,100,0.02,,,-99.99,95.000000,,2013-01-26 22:51:00,
2013-01-26 15:21:00,47.0,47.0,-100.00,NW,315,0.0,6.0,100,0.01,,,0.45,61.000000,,2013-01-26 23:21:00,
2013-01-26 15:32:00,47.0,47.0,-100.00,NW,315,0.0,6.0,100,0.01,,,0.45,61.000000,,2013-01-26 23:32:00,
2013-01-26 15:41:00,47.0,47.0,-100.00,NW,315,0.0,6.0,100,0.01,,,0.45,61.000000,,2013-01-26 23:41:00,
2013-01-26 15:52:00,47.0,47.0,-100.00,NW,315,0.0,6.0,100,0.01,,,0.45,61.000000,,2013-01-26 23:52:00,
2013-01-26 16:21:00,47.0,47.0,-100.00,WNW,295,0.0,5.0,100,0.00,,,0.44,35.000000,,2013-01-27 00:21:00,
2013-01-26 16:32:00,47.0,47.0,-100.00,WNW,295,0.0,5.0,100,0.00,,,0.44,35.000000,,2013-01-27 00:32:00,
2013-01-26 16:41:00,47.0,47.0,-100.00,WNW,295,0.0,5.0,100,0.00,,,0.44,35.000000,,2013-01-27 00:41:00,
2013-01-26 16:51:00,47.0,47.0,-100.00,WNW,295,0.0,5.0,100,0.00,,,0.44,35.000000,,2013-01-27 00:51:00,
2013-01-26 17:22:00,47.0,47.0,-100.00,NW,307,0.0,6.0,100,0.01,,,0.44,13.000000,,2013-01-27 01:22:00,
2013-01-26 17:32:00,47.0,47.0,-100.00,NW,307,0.0,6.0,100,0.01,,,0.44,13.000000,,2013-01-27 01:32:00,
2013-01-26 17:41:00,47.0,47.0,-100.00,NW,307,0.0,6.0,100,0.01,,,0.44,13.000000,,2013-01-27 01:41:00,
2013-01-26 17:51:00,47.0,47.0,-100.00,NW,307,0.0,6.0,100,0.01,,,0.44,13.000000,,2013-01-27 01:51:00,
2013-01-26 18:21:00,46.0,46.0,-100.00,West,270,0.0,6.0,100,0.01,,,0.45,0.000000,,2013-01-27 02:21:00,
2013-01-26 18:31:00,46.0,46.0,-100.00,West,270,0.0,6.0,100,0.01,,,0.45,0.000000,,2013-01-27 02:31:00,
2013-01-26 18:41:00,46.0,46.0,-100.00,West,270,0.0,6.0,100,0.01,,,0.45,0.000000,,2013-01-27 02:41:00,
2013-01-26 18:52:00,46.0,46.0,-100.00,West,270,0.0,6.0,100,0.01,,,0.45,0.000000,,2013-01-27 02:52:00,
2013-01-26 19:21:00,46.0,46.0,-100.00,West,273,0.0,5.0,100,0.02,,,0.47,0.000000,,2013-01-27 03:21:00,
2013-01-26 19:31:00,46.0,46.0,-100.00,West,273,0.0,5.0,100,0.02,,,0.47,0.000000,,2013-01-27 03:31:00,
2013-01-26 19:41:00,46.0,46.0,-100.00,West,273,0.0,5.0,100,0.02,,,0.47,0.000000,,2013-01-27 03:41:00,
2013-01-26 19:51:00,46.0,46.0,-100.00,West,273,0.0,5.0,100,0.02,,,0.47,0.000000,,2013-01-27 03:51:00,
2013-01-26 20:21:00,46.0,46.0,-100.00,WNW,294,0.0,7.0,100,0.01,,,0.48,0.000000,,2013-01-27 04:21:00,
2013-01-26 20:31:00,46.0,46.0,-100.00,WNW,294,0.0,7.0,100,0.01,,,0.48,0.000000,,2013-01-27 04:31:00,
2013-01-26 20:41:00,46.0,46.0,-100.00,WNW,294,0.0,7.0,100,0.01,,,0.48,0.000000,,2013-01-27 04:41:00,
2013-01-26 20:51:00,46.0,46.0,-100.00,WNW,294,0.0,7.0,100,0.01,,,0.48,0.000000,,2013-01-27 04:51:00,
2013-01-26 21:22:00,44.0,44.0,-100.00,SSW,199,0.0,6.0,100,0.01,,,0.47,0.000000,,2013-01-27 05:22:00,
2013-01-26 21:32:00,44.0,44.0,-100.00,SSW,199,0.0,6.0,100,0.01,,,0.47,0.000000,,2013-01-27 05:32:00,
2013-01-26 21:41:00,44.0,44.0,-100.00,SSW,199,0.0,6.0,100,0.01,,,0.47,0.000000,,2013-01-27 05:41:00,
2013-01-26 21:51:00,44.0,44.0,-100.00,SSW,199,0.0,6.0,100,0.01,,,0.47,0.000000,,2013-01-27 05:51:00,
2013-01-26 22:21:00,43.0,43.0,-100.00,ENE,61,0.0,0.0,100,0.00,,,0.45,0.000000,,2013-01-27 06:21:00,
2013-01-26 22:31:00,43.0,43.0,-100.00,ENE,61,0.0,0.0,100,0.00,,,0.45,0.000000,,2013-01-27 06:31:00,
2013-01-26 22:41:00,43.0,43.0,-100.00,ENE,61,0.0,0.0,100,0.00,,,0.45,0.000000,,2013-01-27 06:41:00,
2013-01-26 22:51:00,43.0,43.0,-100.00,ENE,61,0.0,0.0,100,0.00,,,0.45,0.000000,,2013-01-27 06:51:00,
2013-01-26 23:21:00,45.0,45.0,-100.00,WNW,284,0.0,0.0,100,0.00,,,0.44,0.000000,,2013-01-27 07:21:00,
2013-01-26 23:31:00,45.0,45.0,-100.00,WNW,284,0.0,0.0,100,0.00,,,0.44,0.000000,,2013-01-27 07:31:00,
2013-01-26 23:41:00,45.0,45.0,-100.00,WNW,284,0.0,0.0,100,0.00,,,0.44,0.000000,,2013-01-27 07:41:00,
2013-01-26 23:51:00,45.0,45.0,-100.00,WNW,284,0.0,0.0,100,0.00,,,0.44,0.000000,,2013-01-27 07:51:00,